TITAN 3C TRANSTAGE DEB, 43512

Orbit data source: Space-Track

TITAN 3C TRANSTAGE DEB, 43512 is space debris in GEO originally from a launch on Sun, 09 Feb 1969 UTC launched from the Air Force Eastern Test Range (AFETR). Debris objects in space refer to the collection of defunct objects orbiting the Earth. Examples of debris include non-operational satellites, rocket bodies, and fragments generated from explosions, collisions, or faulty payload assembly.

Loading next visibility...
Identifier
43512, 1969-013Q
Orbit
GEO
Country
Flag of USUS
Related business
Manufacturer
Martin Marietta
Mission
Spacecraft
Bus & Motor
Unknown
Mass
Unknown
Launch date (UTC)
1969-02-09 (58 years ago)
Launch vehicle
Unknown
Launch site
Air Force Eastern Test Range (AFETR)
Object type
Payload
Rocket body
Debris
Shape & HBR
Unknown shape, 1.1 m
Radar Cross Section
RCS unknown

Expand to show TLE details & history
Last TLE update: 8 months ago

TLE from 8 months ago
0 TITAN 3C TRANSTAGE DEB
1 43512U 69013Q   26010.08904223 -.00000114  00000-0  00000-0 0  9998
2 43512   0.7931 139.3031 1083873  16.3162 209.9406  0.95012286  1752
Epoch: 2026-01-10T02:08Z
TLE epoch observation values (Epoch: 2026-01-10T02:08:13.248Z)
Latitude
-0.52894°
Longitude
-141.67737°
Altitude
41,534.262 km
Speed
2.742 km/s
True Right ascension
23h 59m 59s
True Declination
0° 31' 42"
Sunlit
Object was in daylight at epoch
Visualization orbit readout
Latitude
Unknown
Longitude
Unknown
Altitude
Unknown
Speed
Unknown
Apparent Right ascension
Unknown
Apparent Declination
Unknown
Sunlit
N/A
Visualization observer readout
Local Sidereal Time
12:11:25
Azimuth
Unknown
Elevation
Unknown
Doppler factor
Unknown
Orbital elements
Apogee altitude
42,067.053 km
Perigee altitude
32,592.308 km
Semi-major axis
43,707.817 km
Eccentricity
0.10839
Inclination
0.7931°
RAAN
139.3031°
Arg. of periapsis
16.3162°
True anomaly
204.4037°
Mean anomaly
209.9406°
Eccentric anomaly
207.11058°
Mean motion
0.23752 °/min
Orbital period
1,515.65 mins
BSTAR
0
Loading maneuver chart data...
Computing Atmospheric mass density...

Documentation

Showing up to 5 results
|